Погода в Паго-Паго

Самоа     14°16′08″S   170°40′57″W
темп.,
°C
ветер,
м/с
пор.,
м/с
влажн.,
%
обл.,
%
осадки,
мм/ч
давл.,
гПа
погр.,
м
16 мая, вс
вс1601:00+28вюв9107823 0.6 1013956
04:00+28вюв910730 0.6 10121126
07:00+28в10117712 1.3 10131038
10:00+28в10117515 0.2 10141083
13:00+28в1010758 1.0 10121030
16:00+28в9107414 0.8 10101075
19:00+28вюв9107415 0.9 10121071
22:00+28вюв9107416 0.4 10131075
17 мая, пн
пн1701:00+28в997524 1.3 1012977
04:00+28вюв997518 0.3 1011995
07:00+28вюв9107617 0.4 10121059
10:00+29в9973100 0.1 10131210
13:00+28в897516 1.6 1011962
16:00+28в99760 3.3 1009830
19:00+28в910760 5.3 1011975
22:00+28в10107616 0.9 10121055
18 мая, вт
вт1801:00+28в9107621 1.8 10111005
04:00+28в9107613 1.0 10101000
07:00+28в9107513 1.2 10111117
10:00+28в9107521 1.4 10131014
13:00+28в9107518 2.0 10101045
16:00+28в897617 0.6 1009983
19:00+28в997613 1.0 1010981
22:00+28в9107614 0.4 1011988
19 мая, ср
ср1901:00+28в997614 1.1 1010982
04:00+28в897718 1.1 1010940
07:00+28в997718 1.6 1011966
10:00+28в910769 0.2 10111015
13:00+28в89769 0.3 1009977
16:00+28в887722 1.0 1008907
19:00+28в887712 1.3 1010925
22:00+28в887821 0.8 1011856
20 мая, чт
чт2001:00+28в787827 1.6 1010856
04:00+28в78788 0.2 1009864
07:00+28всв897713 0.5 1010938
10:00+28всв897798 0.6 1011898
13:00+28всв7877100 1.1 1009893
16:00+28всв667793 0.5 1007817
19:00+28всв667898 1.1 1009784
22:00+28св5678100 0.9 1010764